www.pogodaiklimat.ru

Погода и климат >> Архив погоды >> Таиланд >> Пхетчабун


ПОГОДА в Пхетчабуне

  • Прогноз погоды в Пхетчабуне
  • Монитор погоды в Пхетчабуне

АРХИВ ПОГОДЫ в Пхетчабуне

Время (UTC), дата Ветер
(напр.,м/с)
 
Видим.   Явления Облачность Т
(С)
Тd
(С)
f
(%)
Тe
(С)
Тes
(С)
Комфортность P
(гПа)
Po
(гПа)
Тmin
(С)
Tmax
(С)
R
(мм)
R24
(мм)
S
(см)
12 12.02 штиль 0 8000 м дымка 8/3 600 м
[Sc Ac trans Cs]
+29.5 +24.0 72 +41 +41 опасность
перегрева
1013.4 1000.2 +31.5
15 12.02 штиль 0 8000 м дымка 3/0
[Cs]
+26.3 +22.9 82 +35 +35 очень
душно
1016.2 1002.9
18 12.02 штиль 0 7000 м дымка 3/0
[Cs]
+24.7 +22.2 86 +32 +32 очень
душно
1015.8 1002.4
21 12.02 штиль 0 7000 м дымка 3/0
[Cs]
+23.3 +21.6 90 +31 +31 очень
душно
1014.5 1001.0
00 13.02 штиль 0 6000 м дымка ясно +22.6 +21.1 91 +30 +30 очень
душно
1015.6 1002.1 +22.0
03 13.02 штиль 0 7000 м дымка ясно +27.5 +21.5 70 +35 +50 очень
душно
1016.4 1003.1
06 13.02 ЮВ 2 8000 м мгла ясно +34.5 +19.4 41 +40 +56 опасность
солнечного
удара
1013.0 1000.1
09 13.02 штиль 0 8000 м мгла 1/1 600 м
[Cu hum]
+36.0 +20.6 41 +43 +48 опасность
перегрева
1009.9 997.0
12 13.02 штиль 0 8000 м мгла ясно +31.5 +22.3 58 +41 +41 опасность
перегрева
1011.2 998.1 +36.4
15 13.02 штиль 0 8000 м дымка 1/1 600 м
[Cu hum]
+28.0 +22.7 73 +37 +37 очень
душно
1013.0 999.8
18 13.02 штиль 0 7000 м дымка ясно +26.2 +22.3 79 +34 +34 очень
душно
1012.5 999.2
21 13.02 штиль 0 7000 м дымка ясно +24.5 +21.5 83 +31 +31 очень
душно
1011.2 997.8
00 14.02 штиль 0 6000 м дымка 3/3 600 м
[Sc]
+23.3 +21.3 89 +31 +32 очень
душно
1012.8 999.4 +22.6
03 14.02 штиль 0 7000 м дымка ясно +28.0 +22.1 70 +36 +52 опасность
солнечного
удара
1014.1 1000.9
06 14.02 ЮВ 3 8000 м мгла ясно +35.4 +20.9 43 +42 +56 опасность
перегрева
1011.4 998.5
09 14.02 штиль 0 8000 м мгла 1/1 600 м
[Cu hum]
+36.0 +19.1 37 +41 +46 опасность
перегрева
1008.1 995.3
12 14.02 штиль 0 8000 м мгла 1/1 600 м
[Cu hum]
+32.6 +22.4 55 +42 +42 опасность
перегрева
1009.2 996.3 +36.8
15 14.02 штиль 0 7000 м мгла ясно +29.0 +20.7 61 +36 +36 очень
душно
1011.8 998.6
18 14.02 штиль 0 7000 м дымка ясно +26.5 +21.2 73 +34 +34 очень
душно
1011.8 998.5
21 14.02 штиль 0 6000 м дымка ясно +24.5 +21.2 82 +31 +31 очень
душно
1011.1 997.7
00 15.02 штиль 0 6000 м дымка 3/0
[Ac trans]
+23.0 +21.5 91 +31 +31 очень
душно
1013.0 999.6 +22.4
03 15.02 штиль 0 7000 м дымка 4/0
[Cs]
+28.3 +21.9 68 +36 +51 опасность
солнечного
удара
1014.2 1000.9
06 15.02 штиль 0 8000 м мгла 4/0
[Cs]
+34.0 +21.5 48 +42 +62 опасность
перегрева
1010.9 997.9
09 15.02 штиль 0 8000 м мгла 3/1 600 м
[Cu med, cong Ac trans Cs]
+36.0 +19.9 39 +42 +47 опасность
перегрева
1008.4 995.5
12 15.02 штиль 0 8000 м мгла 5/3 600 м
[Cu Sc Ac trans Cs]
+32.3 +22.7 57 +42 +42 опасность
перегрева
1009.8 996.8 +36.3
15 15.02 С 2 7000 м мгла 5/3 600 м
[Sc Cs]
+28.1 +19.1 58 +33 +33 очень
душно
1012.6 999.4
18 15.02 штиль 0 7000 м дымка 10/4 600 м
[Cu Sc Ac As Cs]
+26.2 +21.4 75 +33 +33 очень
душно
1012.7 999.4
21 15.02 штиль 0 7000 м дымка 10/3 600 м
[Sc Ac trans Cs]
+25.9 +22.2 80 +34 +34 очень
душно
1011.5 998.2
00 16.02 штиль 0 6000 м дымка 8/3 600 м
[Sc Ac trans Cs]
+24.9 +22.1 84 +32 +32 очень
душно
1013.2 999.8 +24.4
03 16.02 штиль 0 6000 м дымка 4/1 600 м
[Cu hum Cs]
+29.1 +22.5 68 +38 +51 опасность
солнечного
удара
1014.6 1001.4
06 16.02 ЮВ 2 7000 м мгла 3/3 600 м
[Cu med, cong]
+33.7 +22.5 52 +43 +55 опасность
перегрева
1010.7 997.8
09 16.02 ЮВ 3 8000 м мгла 3/3 600 м
[Cb cap]
+35.6 +22.1 46 +44 +47 опасность
перегрева
1007.4 994.5
12 16.02 штиль 0 8000 м мгла 3/1 600 м
[Cu Sc Cs]
+31.1 +22.1 59 +40 +40 очень
душно
1007.8 994.8 +35.8
15 16.02 штиль 0 7000 м дымка 4/1 600 м
[Cu Sc Ac trans Cs]
+28.4 +22.5 70 +37 +37 очень
душно
1009.7 996.5
18 16.02 штиль 0 7000 м дымка 9/3 600 м
[Cu Sc Ac trans Cs]
+27.7 +22.4 73 +36 +36 очень
душно
1010.0 996.8
21 16.02 штиль 0 7000 м дымка 8/3 600 м
[Cu hum Ac trans Cs]
+24.7 +22.0 85 +32 +32 очень
душно
1009.9 996.6
00 17.02 штиль 0 8000 м дымка 8/3 600 м
[Cu med, cong Ac trans Cs]
+24.0 +20.9 83 +30 +30 очень
душно
1011.6 998.2 +23.6
03 17.02 штиль 0 8000 м дымка 8/3 600 м
[Cu med, cong Ac trans Cs]
+26.8 +21.9 75 +35 +42 очень
душно
1013.4 1000.1
06 17.02 штиль 0 8000 м гроза, ливневой дождь 8/5 600 м
[Cb cap Ac As Cs]
+25.2 +22.8 87 +33 +41 очень
душно
1011.4 998.1 24
09 17.02 штиль 0 10 км 8/1 600 м
[Cu med, cong Ac lent Cs]
+28.7 +21.9 67 +37 +41 очень
душно
1006.9 993.8
12 17.02 штиль 0 8000 м дымка 5/1 600 м
[Cb cap Cs]
+27.0 +22.6 77 +36 +36 очень
душно
1007.6 994.4 +29.0
15 17.02 штиль 0 8000 м слаб. дождь 10/5 600 м
[Cu Sc Ac lent Cs]
+24.8 +23.0 90 +33 +33 очень
душно
1009.5 996.1 0.5
18 17.02 штиль 0 8000 м дымка {дождь} 10/4 600 м
[Sc Ac lent Cs]
+24.8 +22.4 87 +32 +32 очень
душно
1009.2 995.9 24
21 17.02 штиль 0 8000 м дымка 4/1 600 м
[Sc Cs]
+24.0 +21.7 87 +31 +31 очень
душно
1008.6 995.2
00 18.02 штиль 0 8000 м дымка 4/1 600 м
[Sc Cs]
+24.0 +21.6 86 +31 +31 очень
душно
1009.6 996.3 +23.8 24
03 18.02 штиль 0 8000 м дымка 4/3 600 м
[Sc Ci]
+28.8 +22.8 70 +38 +49 очень
душно
1012.0 998.8
06 18.02 штиль 0 8000 м мгла 4/3 600 м
[Cu med, cong Cs]
+33.2 +20.5 47 +40 +55 опасность
солнечного
удара
1009.6 996.6
09 18.02 штиль 0 8000 м мгла 4/3 600 м
[Cu med, cong Cs]
+34.7 +15.6 32 +37 +41 очень
душно
1006.2 993.3
12 18.02 штиль 0 8000 м мгла 4/1 600 м
[Cu med, cong Cs]
+30.0 +18.4 50 +35 +35 очень
душно
1007.6 994.5 +35.0
15 18.02 штиль 0 8000 м дымка ясно +24.7 +18.0 66 +29 +29 душно 1009.6 996.3
18 18.02 штиль 0 8000 м дымка ясно +22.0 +18.0 78 +27 +27 душно 1009.7 996.3
21 18.02 штиль 0 8000 м дымка ясно +20.5 +18.1 86 +24 +24 комфорт 1009.7 996.2
00 19.02 штиль 0 7000 м дымка ясно +20.0 +17.6 86 +23 +23 комфорт 1011.9 998.3 +19.5
03 19.02 штиль 0 7000 м мгла ясно +27.4 +19.2 61 +33 +49 очень
душно
1013.7 1000.5
06 19.02 Ю 2 8000 м мгла 1/1 600 м
[Cu hum]
+33.4 +21.6 50 +41 +57 опасность
перегрева
1010.8 997.9

 

Местоположение метеостанции Пхетчабун (Таиланд): широта 16.43 долгота 101.15 высота над уровнем моря 116 м.

В архиве по умолчанию представлена погода в Пхетчабуне за последнюю неделю. Архивные данные за месяц целиком и за предыдущие месяцы, начиная с января 2011 года, Вы можете получить, выбрав интересующий диапазон дат из раскрывающегося списка и нажав кнопку "Ввод!".


*Определитесь, кто Вы:
робот инопланетянин человек

Внимание! Время в таблицах - всемирное. Для получения местного времени необходимо прибавить поправку, которая равна 7 ч.

Смотрите также архив погоды в соседних городах и на ближайших метеорологических станциях:

Погода в Ломсаке (Таиланд) (39 км)
Погода в Вичан Бури (Таиланд) (89 км)
Погода в Пичит Агромете (Таиланд) (93 км)
Погода в Пхитсанулоке (Таиланд) (103 км)
Погода в Чайяпхуме (Таиланд) (117 км)
Погода в Лоей Агромете (Таиланд) (124 км)
Погода в Накхон Саван (Таиланд) (127 км)
Погода в Буа Чум (Таиланд) (129 км)
Погода в Лоэй (Таиланд) (129 км)
Погода в Такфа Агромете (Таиланд) (139 км)

Пояснения к столбцам:

Ветер - указаны скорость ветра в м/с - средняя за 10 мин, порывы в срок и между сроками (в фигурных скобках) и направление, откуда дует ветер: С - северный, СВ - северо-восточный, В - восточный, ЮВ - юго-восточный, Ю - южный, ЮЗ - юго-западный, З - западный, СЗ - северо-западный.
Видимость - горизонтальная дальность видимости в метрах или километрах. При видимости от 1 до 10 км при отсутствии осадков обычно наблюдается дымка, при ухудшении видимости до 1 км и менее - туман. В сухую погоду видимость может ухудшаться дымом, пылью или мглою.
Явления - указаны атмосферные явления, наблюдавшиеся в срок или в последний час перед сроком; фигурными скобками обозначены явления, наблюдавшиеся между сроками (за 1-3 часа до срока); квадратными скобками обозначены град или гололедные отложения с указанием их диаметра в мм.
Облачность - указаны через наклонную черту общая и нижняя облачность в баллах и высота нижней границы облаков в метрах; квадратными скобками обозначены формы облаков: Ci - перистые, Cs - перисто-слоистые, Cc - перисто-кучевые, Ac - высококучевые, As - высокослоистые, Sc - слоисто-кучевые, Ns - слоисто-дождевые, Cu - кучевые, Cb - кучево-дождевые. Подробнее классификацию облаков см. в Атласе облаков (PDF).
T - Температура воздуха - температура, измеренная на высоте 2 м над землей.
Td - Температура точки росы - температура, при понижении до которой содержащийся в воздухе водяной пар достигнет насыщения.
f - Относительная влажность воздуха - влажноcть воздуха, измеренная на высоте 2 м над землей.
Te - Эффективная температура - температура, которую ощущает одетый по сезону человек в тени. Характеристика душности погоды. При расчете учитывается влияние влажности воздуха и скорости ветра на теплоощущения человека.
Tes - Эффективная температура на солнце - температура, которую ощущает человек, с поправкой на солнечный нагрев. Характеристика знойности погоды. Зависит от высоты солнца над горизонтом, облачности и скорости ветра. Ночью, в пасмурную погоду, а также при ветре 12 м/с и более поправка равна нулю.
P - Атмосферное давление - приведенное к уровню моря атмосферное давление.
Po - Атмосферное давление - измеренное на уровне метеостанции атмосферное давление.
Tmin - Минимальная температура - минимум температуры воздуха на высоте 2 м над землей.
Tmax - Максимальная температура - максимум температуры воздуха на высоте 2 м над землей.
R - Количество осадков - Количество выпавших осадков за период времени, мм. При наведении курсора мыши на число - период времени, за который выпало указанное количество осадков.
R24 - Количество осадков - Количество выпавших осадков за 24 часа, мм.
S - Снежный покров - Высота снежного покрова, см. При наведении курсора мыши на число - состояние снежного покрова и степень покрытия местности в баллах.